Regional Weather Roundup
Issued by NWS

Home | Current Version | Previous Version | Text Only | Print | Product List | Glossary On
Versions: 1 2 3 4 5 6 7 8 9 10 11 12 13 14 15 16 17 18 19 20 21 22 23 24 25 26 27 28 29 30 31 32 33 34 35 36 37 38 39 40 41 42 43 44 45 46 47 48 49 50
000
ASCA44 KEWX 070420
RWRMX

LATIN AMERICA AND CARIBBEAN REGIONAL WEATHER ROUNDUP
NATIONAL WEATHER SERVICE AUSTIN/SAN ANTONIO TX
1000 PM CST FRI MAR 06 2015

NOTE: "FAIR" INDICATED FEW OR NO CLOUDS BELOW 12,000 FEET WITH NO
SIGNIFICANT WEATHER AND/OR OBSTRUCTIONS TO VISIBILITY.

BAJA CALIFORNIA

CITY           SKY/WX    TMP DP  RH WIND       PRES   REMARKS
LA PAZ         PTCLDY    66  57  72 SW7       30.01
MEXICALI       CLEAR     64  34  32 NW7       29.99
S.J. DEL CABO  PTCLDY    68  54  60 CALM      30.00R
TIJUANA        CLEAR     61  39  44 N2        30.05R

NORTHWESTERN MEXICO

CITY           SKY/WX    TMP DP  RH WIND       PRES   REMARKS
CULIACAN       CLEAR     70  61  73 CALM      29.97
DURANGO        PTCLDY    61  39  44 NW8       30.29R
HERMOSILLO     MOCLDY    72  41  33 NW5       29.98
CD. JUAREZ     PTCLDY    55  28  35 E12       30.20
LOS MOCHIS     MOCLDY    66  57  72 NW7       29.97R
OBREGON        CLOUDY    64  55  72 W3        29.93

NORTHEASTERN MEXICO

CITY           SKY/WX    TMP DP  RH WIND       PRES   REMARKS
CHIHUAHUA      PTCLDY    48  30  49 E5        30.27  WCI  46
MONTERREY      CLOUDY    46  36  66 E5        30.45R WCI  44
REYNOSA        PTCLDY    46  28  49 E5        30.50  WCI  44
SALTILLO       CLEAR     34  27  75 CALM      30.38R
TORREON        PTCLDY    55  39  54 CALM      30.28R
CD. VICTORIA   MOCLDY    46  36  66 SW3       30.47

WESTERN MEXICO

CITY           SKY/WX    TMP DP  RH WIND       PRES   REMARKS
AGUASCALIENTES PTCLDY    59  36  41 NE14      30.31
DEL BAJIO      MOCLDY    55  41  58 NE12      30.36R
GUADALAJARA    PTCLDY    70  45  40 SW13      30.20
MAZATLAN       CLEAR     66  59  77 NE9       29.95S
P. VALLARTA    PTCLDY    75  68  78 CALM      29.98R
ZACATECAS      MOCLDY    52  37  58 E12       30.36R

CENTRAL MEXICO

CITY           SKY/WX    TMP DP  RH WIND       PRES   REMARKS
MEXICO CITY    PTCLDY    57  41  54 E9        30.41R
MORELIA        MOCLDY    61  48  63 CALM      30.28
PUEBLA         CLEAR     54  45  71 NW3       30.42R
QUERETARO      PTCLDY    48  39  71 E14       30.44R WCI  43
S. LUIS POTOSI CLOUDY    45  39  81 SE8       30.43R WCI  40
TAMPICO        MOCLDY    55  37  50 NW7       30.48R
TOLUCA         MOCLDY    54  45  71 CALM      30.46R

SOUTHERN MEXICO

CITY           SKY/WX    TMP DP  RH WIND       PRES   REMARKS
ACAPULCO       CLEAR     79  75  89 W3        29.89R
OAXACA         MOCLDY    59  45  58 NW20      30.36R
VERACRUZ       CLOUDY    64  55  72 NW5       30.33R

YUCATAN PENINSULA

CITY           SKY/WX    TMP DP  RH WIND       PRES   REMARKS
CAMPECHE       MOCLDY    77  73  88 NE14      30.12R
CANCUN         PTCLDY    77  72  83 NE7       30.17S
COZUMEL        PTCLDY    73  72  94 E6        30.17R
MERIDA         MOCLDY    77  72  83 NE8       30.18R
TAPACHULA      CLEAR     82  70  65 CALM      29.90R
TUX. GUTIERREZ MOCLDY    63  52  67 NW14      30.19F
VILLAHERMOSA   CLOUDY    63  63 100 SW15      30.23S

CENTRAL AMERICA

CITY           SKY/WX    TMP DP  RH WIND       PRES   REMARKS
MANAGUA        PTCLDY    75  68  78 E5        29.94S

CARIBBEAN

CITY           SKY/WX    TMP DP  RH WIND       PRES   REMARKS
ARUBA          PTCLDY    79  72  78 E14       29.94S
CURACAO        PTCLDY    79  72  78 E14       29.97S
KINGSTON       PTCLDY    79  70  73 N8        30.06R
NASSAU         PTCLDY    75  70  83 VRB1      30.19F
SAN JUAN       MOCLDY    77  70  78 E7        30.12F
SANTO DOMINGO  PTCLDY    73  70  88 NE7       30.09S

$$




USA.gov is the U.S. government's official web portal to all federal, state and local government web resources and services.